Regional Weather Roundup
Issued by NWS

Home | Current Version | Previous Version | Text Only | Print | Product List | Glossary Off
Versions: 1 2 3 4 5 6 7 8 9 10 11 12 13 14 15 16 17 18 19 20 21 22 23 24 25 26 27 28 29 30 31 32 33 34 35 36 37 38 39 40 41 42 43 44 45 46 47 48 49 50

000
ASUS45 KABQ 162101
RWRNM
WEATHER ROUNDUP FOR NEW MEXICO
NATIONAL WEATHER SERVICE ALBUQUERQUE NM
300 PM MDT TUE SEP 16 2014

NOTE: "FAIR" MEANS FEW OR NO CLOUDS BELOW 12,000 FEET AGL WITH NO
       SIGNIFICANT WEATHER OR OBSTRUCTIONS TO VISION.

      THIS PRODUCT IS RELEASED AS TWO VERSIONS.  ONE VERSION NEAR
      THE TOP OF THE HOUR CONTAINING PRELIMINARY DATA FROM ALBUQUERQUE
      AND OTHER STATIONS.  A FINAL VERSION WITH ADDITIONAL DATA IS
      ISSUED ABOUT 10 MINUTES AFTER THE HOUR.

NMZ501-503-504-510>518-162200-
NORTHWEST PLATEAU/NORTHCENTRAL MOUNTAINS

CITY           SKY/WX    TMP DP  RH WIND       PRES   REMARKS
FARMINGTON     SUNNY     83  46  27 SW8       30.15F
LOS ALAMOS     PTSUNNY   68  52  56 S9G17     30.31F
SANTA FE       CLOUDY    74  50  42 W9        30.26F
ANGEL FIRE     MOCLDY    61  44  54 S14       30.39S

$$
NMZ402-403-502-505>509-162200-
WESTCENTRAL MOUNTAINS/SOUTHWEST MOUNTAINS

CITY           SKY/WX    TMP DP  RH WIND       PRES   REMARKS
GALLUP         LGT RAIN  72  52  49 SE5       30.25F
GRANTS         PTSUNNY   75  50  41 SE14G21   30.28F
SILVER CITY    CLOUDY    64  63  94 E13       30.24F

$$
NMZ407-409-411-412-162200-
SOUTHERN DESERTS

CITY           SKY/WX    TMP DP  RH WIND       PRES   REMARKS
LORDSBURG      CLOUDY    70  63  78 E15G23    30.13F
DEMING         LGT RAIN  69  66  90 NE15      30.14F
LAS CRUCES     CLOUDY    74  63  69 SE12      30.18F
HOLLOMAN AFB   LGT RAIN  72  64  76 CALM      30.16F
ALAMOGORDO     CLOUDY    72  64  78 NW3       30.18F
T OR C         LGT RAIN  69  61  75 CALM      30.20F

$$
NMZ519>523-162200-
CENTRAL VALLEYS/CENTRAL HIGHLANDS

CITY           SKY/WX    TMP DP  RH WIND       PRES   REMARKS
ALBUQUERQUE    CLOUDY    71  58  63 S7        30.23F
DOUBLE EAGLE   PTSUNNY   72  55  56 S12       30.26F
CLINES CORNERS CLOUDY    67  52  58 W9        30.31F
BELEN          FAIR      73  58  59 S14       30.23F
SOCORRO        DRIZZLE   68  62  81 CALM      30.22F

$$
NMZ524>526-539-540-162200-
SOUTHCENTRAL MOUNTAINS

CITY           SKY/WX    TMP DP  RH WIND       PRES   REMARKS
RUIDOSO        NOT AVBL

$$
NMZ527>531-162200-
NORTHEAST HIGHLANDS/NORTHEAST PLAINS

CITY           SKY/WX    TMP DP  RH WIND       PRES   REMARKS
LAS VEGAS      CLOUDY    72  52  49 S15       30.28F
RATON          MOSUNNY   80  45  28 SW8       30.22F
CLAYTON        SUNNY     80  55  42 S16G26    30.15F

$$
NMZ532>537-162200-
EASTCENTRAL PLAINS

CITY           SKY/WX    TMP DP  RH WIND       PRES   REMARKS
TUCUMCARI      CLOUDY    80  59  48 S14G21    30.14F
CANNON AFB     NOT AVBL
CLOVIS AIRPORT   N/A     73  61  64 SW14      30.20F

$$
NMZ028-029-538-162200-
SOUTHEAST PLAINS

CITY           SKY/WX    TMP DP  RH WIND       PRES   REMARKS
ROSWELL        LGT RAIN  68  65  90 SE9       30.18F FOG
CARLSBAD       PTSUNNY   77  69  76 NE5       30.14F
HOBBS          LGT RAIN  68  68 100 NW6       30.19F


$$


USA.gov is the U.S. government's official web portal to all federal, state and local government web resources and services.